FENGYUN 1C DEB

Satellite information

Favourite Embed

Satellite Type and Status

DEBRISIN ORBIT

Key statistics

Satellite FENGYUN 1C DEB at a glance.

Uptime

9667

Days in orbit

Revolutions

≈ 14.5

Per day

Orbit

SSO

Sun Synchronous Orbit

Inclination

99.3

Latest

Satellite identification and parameters

Extended collection of information and parameters for FENGYUN 1C DEB.

Object identification

Identified? True

Debris? True

Object name: FENGYUN 1C DEB

International designator: 1999-025CDN

Object number (NORAD): 31715

Object ID (CCSDS): 31715

Country: PEOPLES REPUBLIC OF CHINA (PRC)

Current information (Y/N): Y

RCS size: SMALL

Orbital parameters

Period: 99.218 minutes

Inclination: 99.2963 deg

SMA: 7099.389 km

Apoapsis: 854.939 km

Periapsis: 587.569 km

RAAN: 123.57 deg

Eccentricy: 0.01883047

Argument of periapsis: 259.7329 deg

Mean anomaly: 98.2584 deg

Mean motion: 14.51347211 rev/day

Mean motion (dot): 0.00007052 rev/day2

B* drag term: 0.0014171825 1/REarth

Two-line elements (TLE)

Creation date: Oct. 27, 2025, 2:46 a.m.

Reference frame: TEME

Reference center: EARTH

Epoch: Oct. 26, 2025, 6 p.m. UTC

TLE line 0: 0 FENGYUN 1C DEB

TLE line 1: 1 31715U 99025CDN 25299.75036027 .00007052 00000-0 14172-2 0 9990

TLE line 2: 2 31715 99.2963 123.5700 0188305 259.7329 98.2584 14.51347211610357

Live tracking on map

Real-time ground track for satellite FENGYUN 1C DEB.

In-orbit conjunctions

A list of the most updated potential collisions computed for object FENGYUN 1C DEB.

Target Orbit TCA Probability of collision Miss distance Type
CZ-6A DEB SSO 2025-08-12 18:51:26 0.0001068689 179.0 (m) DEBRIS
IRIDIUM 33 DEB LEO 2025-03-06 08:05:44 0.0002264361 18.0 (m) DEBRIS
CZ-6A DEB LEO 2024-12-27 05:12:46 0.0002084153 199.0 (m) DEBRIS

Associated space launch

Chinese polar orbiting meteorological satellite

FENGYUN 1C DEB was lifted into orbit during the mission ‘Long March 4B | Feng Yun 1C’, on board a Long March 4B space rocket.

The launch took place on May 10, 1999, 1:33 a.m. from Launch Complex 7.

For more information about the launch, click the button.

Launch to space Long March 4B | Feng Yun 1C
Long March 4B | Feng Yun 1C

Agency: N/A

Status: Launch Successful

Launch date: May 10, 1999, 1:33 a.m. UTC

Rocket: Long March 4B

Launch pad: Launch Complex 7

Location: Taiyuan Satellite Launch Center, People's Republic of China

...

Latest news about this satellite

There are no fresh news available about this satellite. Check back as we update our databases every day.


Newsletter sign-up

Weekly statistics, charts and insights to help you stay on top of the space industry.